Change the Weather History Date:

Thursday, December 27, 2012

  Actual Average Record
Temperature  
Mean Temperature 44 °F -  
Max Temperature 47 °F 40 °F 53 °F (2002)
Min Temperature 41 °F 32 °F 21 °F (1996)
Degree Days  
Heating Degree Days 21    
Moisture  
Dew Point 41 °F    
Average Humidity 87    
Maximum Humidity 94    
Minimum Humidity 69    
Precipitation  
Precipitation 0.35 in - - ()
Sea Level Pressure  
Sea Level Pressure 29.69 in    
Wind  
Wind Speed 16 mph ()    
Max Wind Speed 28 mph    
Max Gust Speed 33 mph    
Visibility 5.5 miles    
Events Rain    
Averages and records for this station are not official NWS values.
T = Trace of Precipitation, MM = Missing Value Source: Averaged Metar Reports

Daily Weather History Graph

Daily Weather History Graph

Search for Another Location

Airport or City:

Trip Planner

Search our weather history database for the weather conditions in past years. The results will help you decide how hot, cold, wet, or windy it might be!

Date:

Astronomy

Dec. 27, 2012 Rise Set
Actual Time 8:39 AM CET 4:39 PM CET
Civil Twilight 8:00 AM CET 5:18 PM CET
Nautical Twilight 7:18 AM CET 6:00 PM CET
Astronomical Twilight 6:38 AM CET 6:40 PM CET
Moon 4:12 PM CET (12/27) 7:35 AM CET (12/27)
Length of Visible Light 9h 18m
Length of Day
8h 00m
Waxing Gibbous, 99% of the Moon is Illuminated
Dec 27
Waxing Gibbous
Dec 28
Full
Jan 5
Last Quarter
Jan 11
New
Jan 19
First Quarter

Hourly Weather History & Observations

Time (CET) Temp. Windchill Dew Point Humidity Pressure Visibility Wind Dir Wind Speed Gust Speed Precip Events Conditions
12:20 AM 46.4 °F 38.1 °F 44.6 °F 93% 29.68 in 6.2 mi SSW 24.2 mph - N/A Rain Light Rain Showers
12:50 AM 48.2 °F - 44.6 °F 87% 29.65 in 6.2 mi SSW 21.9 mph 33.4 mph N/A Rain Light Rain Showers
1:00 AM 47 °F - 44 °F 86% 29.68 in 12 mi SSW 22.4 mph - - Rain Light Rain Showers
1:20 AM 48.2 °F - 42.8 °F 82% 29.65 in 6.2 mi SW 24.2 mph - N/A   Scattered Clouds
1:50 AM 46.4 °F 37.5 °F 41.0 °F 81% 29.65 in 6.2 mi SW 27.6 mph - N/A   Partly Cloudy
2:20 AM 46.4 °F 38.5 °F 41.0 °F 81% 29.68 in 6.2 mi WSW 21.9 mph - N/A   Partly Cloudy
2:50 AM 46.4 °F 38.3 °F 41.0 °F 81% 29.68 in 6.2 mi WSW 23.0 mph - N/A Rain Light Rain
3:20 AM 46.4 °F 38.7 °F 41.0 °F 81% 29.71 in 6.2 mi WSW 20.7 mph - N/A   Partly Cloudy
3:50 AM 46.4 °F 39.2 °F 39.2 °F 76% 29.71 in 6.2 mi WSW 18.4 mph - N/A   Partly Cloudy
4:00 AM 46 °F - 39 °F 69% 29.73 in 8 mi WSW 17.9 mph - - Rain Light Rain
4:20 AM 46.4 °F 39.5 °F 41.0 °F 81% 29.71 in 6.2 mi WSW 17.3 mph - N/A   Partly Cloudy
4:50 AM 44.6 °F 37.4 °F 39.2 °F 81% 29.71 in 6.2 mi WSW 16.1 mph - N/A   Partly Cloudy
5:20 AM 46.4 °F 40.4 °F 41.0 °F 81% 29.71 in 6.2 mi SW 13.8 mph - N/A   Partly Cloudy
5:50 AM 44.6 °F 37.8 °F 41.0 °F 87% 29.68 in 5.6 mi SW 15.0 mph - N/A   Scattered Clouds
6:20 AM 46.4 °F 39.5 °F 41.0 °F 81% 29.68 in 6.2 mi SW 17.3 mph - N/A   Mostly Cloudy
6:50 AM 46.4 °F 39.5 °F 41.0 °F 81% 29.71 in 6.2 mi SW 17.3 mph - N/A   Mostly Cloudy
7:00 AM 46 °F - 41 °F 75% 29.73 in 6 mi SW 17.9 mph - -   Mostly Cloudy
7:20 AM 44.6 °F 37.4 °F 39.2 °F 81% 29.68 in 6.2 mi SW 16.1 mph - N/A   Scattered Clouds
7:50 AM 44.6 °F 37.4 °F 39.2 °F 81% 29.68 in 6.2 mi SW 16.1 mph - N/A   Scattered Clouds
8:20 AM 44.6 °F 37.8 °F 41.0 °F 87% 29.68 in 6.2 mi SSW 15.0 mph - N/A   Scattered Clouds
8:50 AM 44.6 °F 37.4 °F 41.0 °F 87% 29.65 in 6.2 mi SSW 16.1 mph - N/A   Scattered Clouds
9:20 AM 44.6 °F 38.4 °F 41.0 °F 87% 29.65 in 6.2 mi SSW 12.7 mph - N/A   Scattered Clouds
9:50 AM 44.6 °F 38.1 °F 41.0 °F 87% 29.65 in 6.2 mi SSW 13.8 mph - N/A   Mostly Cloudy
10:00 AM 45 °F - 41 °F 80% 29.67 in 6 mi SSW 13.4 mph - -   Mostly Cloudy
10:20 AM 46.4 °F 40.7 °F 41.0 °F 81% 29.65 in 6.2 mi SSW 12.7 mph - N/A   Mostly Cloudy
10:50 AM 46.4 °F 40.4 °F 42.8 °F 87% 29.62 in 4.3 mi SSW 13.8 mph - N/A Rain Light Rain Showers
11:20 AM 46.4 °F 39.8 °F 42.8 °F 87% 29.62 in 6.2 mi SSW 16.1 mph - N/A   Mostly Cloudy
11:50 AM 46.4 °F 40.1 °F 42.8 °F 87% 29.59 in 6.2 mi SSW 15.0 mph - N/A   Mostly Cloudy
12:20 PM 48.2 °F - 42.8 °F 82% 29.59 in 6.2 mi SSW 15.0 mph - N/A   Mostly Cloudy
12:50 PM 46.4 °F 40.4 °F 44.6 °F 93% 29.56 in 2.5 mi SSW 13.8 mph - N/A Rain Light Rain Showers
1:00 PM 47 °F - 44 °F 87% 29.59 in 2 mi SSW 13.4 mph - - Rain Light Rain Showers
1:20 PM 44.6 °F 36.1 °F 41.0 °F 87% 29.56 in 3.7 mi WSW 21.9 mph - N/A Rain Light Rain Showers
1:50 PM 44.6 °F 38.1 °F 41.0 °F 87% 29.56 in 5.0 mi SW 13.8 mph - N/A Rain Light Rain Showers
2:20 PM 44.6 °F 38.4 °F 42.8 °F 93% 29.56 in 3.7 mi SW 12.7 mph - N/A Rain Rain Showers
2:50 PM 44.6 °F 37.2 °F 41.0 °F 87% 29.56 in 3.7 mi WSW 17.3 mph - N/A Rain Light Rain Showers
3:20 PM 42.8 °F 36.6 °F 39.2 °F 87% 29.56 in 6.2 mi WSW 11.5 mph - N/A Rain Light Rain Showers
3:50 PM 42.8 °F 37.0 °F 41.0 °F 93% 29.56 in 6.2 mi WSW 10.4 mph - N/A   Mostly Cloudy
4:00 PM 44 °F - 41 °F 83% 29.60 in 7 mi WSW 8.9 mph - - Rain Light Rain Showers
4:20 PM 42.8 °F 36.6 °F 41.0 °F 93% 29.59 in 6.2 mi SSW 11.5 mph - N/A Rain Light Rain Showers
4:50 PM 42.8 °F 36.2 °F 41.0 °F 93% 29.59 in 6.2 mi WSW 12.7 mph - N/A   Mostly Cloudy
5:20 PM 44.6 °F 38.4 °F 41.0 °F 87% 29.62 in 6.2 mi West 12.7 mph - N/A   Mostly Cloudy
5:50 PM 42.8 °F 35.8 °F 41.0 °F 93% 29.62 in 6.2 mi WSW 13.8 mph - N/A Rain Light Rain Showers
6:20 PM 41.0 °F 33.5 °F 39.2 °F 93% 29.65 in 6.2 mi WSW 13.8 mph - N/A Rain Light Rain
6:50 PM 41.0 °F 33.9 °F 39.2 °F 93% 29.68 in 4.3 mi WSW 12.7 mph - N/A Rain Light Rain
7:00 PM 41 °F - 40 °F 92% 29.71 in 4 mi WSW 13.4 mph - - Rain Light Rain
7:20 PM 42.8 °F 36.6 °F 41.0 °F 93% 29.71 in 4.3 mi WSW 11.5 mph - N/A Rain Light Rain
7:50 PM 42.8 °F 38.6 °F 41.0 °F 93% 29.74 in 3.7 mi West 6.9 mph - N/A Rain Light Rain
8:20 PM 42.8 °F 39.3 °F 41.0 °F 93% 29.74 in 2.2 mi WNW 5.8 mph - N/A Rain Light Rain
8:50 PM 42.8 °F 37.5 °F 41.0 °F 93% 29.80 in 5.0 mi NW 9.2 mph - N/A Rain Light Rain
9:20 PM 42.8 °F 37.0 °F 41.0 °F 93% 29.86 in 5.6 mi NW 10.4 mph - N/A   Mostly Cloudy
9:50 PM 42.8 °F 37.0 °F 41.0 °F 93% 29.89 in 5.0 mi NW 10.4 mph - N/A   Mostly Cloudy
10:00 PM 42 °F - 41 °F 94% 29.92 in 5 mi NW 11.2 mph - - Rain Light Rain
10:20 PM 42.8 °F 37.0 °F 41.0 °F 93% 29.92 in 3.7 mi WNW 10.4 mph - N/A   Mostly Cloudy
10:50 PM 42.8 °F 37.5 °F 41.0 °F 93% 29.95 in 2.2 mi WNW 9.2 mph - N/A Rain Light Rain
11:20 PM 42.8 °F 37.0 °F 41.0 °F 93% 29.98 in 1.7 mi WNW 10.4 mph - N/A Rain Light Rain
11:50 PM 42.8 °F 36.6 °F 41.0 °F 93% 30.01 in 3.1 mi WNW 11.5 mph - N/A Rain Light Rain